map of MEK home
MEK - Airport
Location
City:  Meknes, Meknčs, Morocco
Name:Bassatine AB
Old (Alt.):Second Royal Air Force Base
ICAO:GMFM
IATA:MEK

Details
Type:Airport (Aerodrome, Airfield)
Use:Military
Latitude:33°52'45"N (33.879067)
Longitude:5°30'54"W (-5.515124)
Datum:WGS 1984
Elevation:1890 ft (576 m)
Variation:1.24°W (WMM2015 magnetic declination)
0.11° annual change
Runways:2
Longest:9252 × 164 ft (2820 × 50 m), paved

Time
Time Zone:UTC+0 (DST+1)
Local Time:

Weather
METAR:GMFM 252000Z 28006KT 8000 SCT023TCU SCT100 28/14 Q1015 NOSIG
TAF:GMFM 251700Z 2518/2624 30012KT 9999 FEW023 SCT100 BKN200
TEMPO 2600/2606 VRB03KT
BECMG 2612/2616 34012KT 8000 SCT023 FEW030CB BKN200

Related Locations
Nearby:
Farthest:KKE: 12330 mi / 19844 km
Kerikeri/Bay of Islands, NTL, NZ

Find:

   beyond  
but within

Other Information
Maps:
NOTAMs:
Links:
Sources:

  
flag of Morocco   

Sectional Chart

Flight Planning
at skyvector.com

Satellite Image

Google Maps Satellite view

 

Copyright © 2004-2017 Karl L. Swartz. All rights reserved.
The Great Circle Mapper name and logo are trademarks of the Great Circle Mapper.
All other trademarks mentioned herein belong to their respective owners.
Please see credits for attibutions and further copyright information.

  Follow gcmap on Facebook Follow gcmap on Twitter Follow gcmap on Google+ GCmap on LinkedIn

hCard Microformat

Geo Microformat